• In Hungary
  • List of Countries
  • For 7 days
  • Water Temperature
  • Satellite Maps
  • Weather Map
  • News
  • Weather Widgets
  • user-avatar
    Login

    Hourly Weather Blazek

    Today, 22 May, Tuesday

    Time Temperature Precipitation Wind Pressure Humidity
    00:00 +9°C° 0 mm 3 mps 737 mmHg 77%
    01:00 +9°C° 0 mm 3 mps 737 mmHg 78%
    02:00 +9°C° 0 mm 3 mps 737 mmHg 79%
    03:00 +8°C° 0 mm 3 mps 736 mmHg 81%
    04:00 +8°C° 0 mm 3 mps 736 mmHg 82%
    05:00 +10°C° 0 mm 3 mps 736 mmHg 79%
    06:00 +12°C° 0 mm 4 mps 736 mmHg 76%
    07:00 +13°C° 0 mm 4 mps 736 mmHg 73%
    08:00 +15°C° 0 mm 4 mps 736 mmHg 69%
    09:00 +18°C° 0 mm 3 mps 736 mmHg 65%
    10:00 +20°C° 0 mm 3 mps 736 mmHg 62%
    11:00 +21°C° 0.2 mm 3 mps 736 mmHg 61%
    12:00 +21°C° 0.2 mm 3 mps 736 mmHg 60%
    13:00 +22°C° 0.2 mm 3 mps 736 mmHg 59%
    14:00 +23°C° 0.1 mm 2 mps 736 mmHg 58%
    15:00 +23°C° 0.1 mm 2 mps 735 mmHg 57%
    16:00 +23°C° 0.1 mm 2 mps 735 mmHg 56%
    17:00 +21°C° 0.1 mm 2 mps 735 mmHg 63%
    18:00 +19°C° 0.1 mm 2 mps 735 mmHg 70%
    19:00 +18°C° 0.1 mm 2 mps 735 mmHg 77%
    20:00 +17°C° 0 mm 2 mps 735 mmHg 81%
    21:00 +16°C° 0 mm 2 mps 736 mmHg 85%
    22:00 +15°C° 0 mm 2 mps 736 mmHg 89%
    23:00 +15°C° 0 mm 2 mps 736 mmHg 90%

    Tomorrow, 23 May, Wednesday

    Time Temperature Precipitation Wind Pressure Humidity
    00:00 +14°C° 0 mm 2 mps 736 mmHg 91%
    01:00 +14°C° 0 mm 2 mps 736 mmHg 92%
    02:00 +14°C° 0 mm 1 mps 737 mmHg 93%
    03:00 +14°C° 0 mm 1 mps 737 mmHg 93%
    04:00 +13°C° 0 mm 1 mps 737 mmHg 93%
    05:00 +15°C° 0 mm 1 mps 737 mmHg 89%
    06:00 +16°C° 0 mm 1 mps 737 mmHg 85%
    07:00 +19°C° 0 mm 1 mps 738 mmHg 81%
    08:00 +20°C° 0.3 mm 1 mps 738 mmHg 78%
    09:00 +21°C° 0.3 mm 1 mps 738 mmHg 76%
    10:00 +21°C° 0.3 mm 1 mps 738 mmHg 74%
    11:00 +21°C° 0.7 mm 2 mps 738 mmHg 72%
    12:00 +21°C° 0.7 mm 2 mps 738 mmHg 71%
    13:00 +21°C° 0.7 mm 3 mps 738 mmHg 70%
    14:00 +21°C° 0.4 mm 3 mps 738 mmHg 72%
    15:00 +21°C° 0.4 mm 3 mps 738 mmHg 73%
    16:00 +20°C° 0.4 mm 3 mps 738 mmHg 75%
    17:00 +19°C° 0.1 mm 3 mps 738 mmHg 79%
    18:00 +18°C° 0.1 mm 2 mps 738 mmHg 83%
    19:00 +17°C° 0.1 mm 2 mps 738 mmHg 87%
    20:00 +16°C° 0 mm 2 mps 738 mmHg 87%
    21:00 +16°C° 0 mm 2 mps 738 mmHg 88%
    22:00 +15°C° 0 mm 2 mps 739 mmHg 88%
    23:00 +15°C° 0 mm 2 mps 739 mmHg 89%

    Day after tomorrow, 24 May, Thursday

    Time Temperature Precipitation Wind Pressure Humidity
    00:00 +14°C° 0 mm 2 mps 739 mmHg 89%
    01:00 +14°C° 0 mm 2 mps 739 mmHg 89%
    02:00 +14°C° 0 mm 2 mps 739 mmHg 90%
    03:00 +12°C° 0 mm 3 mps 739 mmHg 90%
    04:00 +12°C° 0 mm 3 mps 739 mmHg 91%
    05:00 +14°C° 0 mm 3 mps 739 mmHg 86%
    06:00 +16°C° 0 mm 3 mps 739 mmHg 82%
    07:00 +17°C° 0 mm 4 mps 740 mmHg 78%
    08:00 +19°C° 0.2 mm 4 mps 740 mmHg 74%
    09:00 +20°C° 0.2 mm 4 mps 740 mmHg 70%
    10:00 +21°C° 0.2 mm 5 mps 740 mmHg 66%
    11:00 +22°C° 0.3 mm 5 mps 740 mmHg 62%
    12:00 +22°C° 0.3 mm 5 mps 740 mmHg 59%
    13:00 +23°C° 0.3 mm 5 mps 740 mmHg 56%
    14:00 +23°C° 0 mm 5 mps 739 mmHg 56%
    15:00 +23°C° 0 mm 4 mps 739 mmHg 56%
    16:00 +22°C° 0 mm 4 mps 739 mmHg 56%
    17:00 +21°C° 0 mm 4 mps 739 mmHg 63%
    18:00 +19°C° 0 mm 3 mps 739 mmHg 70%
    19:00 +18°C° 0 mm 3 mps 739 mmHg 76%
    20:00 +17°C° 0 mm 3 mps 739 mmHg 80%
    21:00 +16°C° 0 mm 3 mps 739 mmHg 83%
    22:00 +14°C° 0 mm 3 mps 739 mmHg 87%
    23:00 +13°C° 0 mm 3 mps 739 mmHg 88%

    25 May, Friday

    Time Temperature Precipitation Wind Pressure Humidity
    00:00 +14°C° 0 mm 2 mps 739 mmHg 90%
    01:00 +13°C° 0 mm 2 mps 739 mmHg 92%
    02:00 +13°C° 0 mm 2 mps 739 mmHg 93%
    03:00 +13°C° 0 mm 2 mps 739 mmHg 93%
    04:00 +13°C° 0 mm 2 mps 740 mmHg 94%
    05:00 +13°C° 0 mm 3 mps 740 mmHg 88%
    06:00 +16°C° 0 mm 3 mps 740 mmHg 83%
    07:00 +18°C° 0 mm 3 mps 740 mmHg 77%
    08:00 +19°C° 0.1 mm 4 mps 740 mmHg 71%
    09:00 +21°C° 0.1 mm 4 mps 740 mmHg 65%
    10:00 +22°C° 0.1 mm 5 mps 740 mmHg 59%
    11:00 +23°C° 0 mm 5 mps 740 mmHg 57%
    12:00 +23°C° 0 mm 5 mps 740 mmHg 54%
    13:00 +25°C° 0 mm 5 mps 740 mmHg 52%
    14:00 +25°C° 0.1 mm 5 mps 740 mmHg 54%
    15:00 +23°C° 0.1 mm 5 mps 739 mmHg 56%
    16:00 +23°C° 0.1 mm 5 mps 739 mmHg 58%
    17:00 +21°C° 0.1 mm 4 mps 739 mmHg 65%
    18:00 +20°C° 0.1 mm 4 mps 739 mmHg 73%
    19:00 +18°C° 0.1 mm 3 mps 739 mmHg 81%
    20:00 +17°C° 0 mm 3 mps 740 mmHg 84%
    21:00 +16°C° 0 mm 3 mps 740 mmHg 88%
    22:00 +16°C° 0 mm 3 mps 740 mmHg 91%
    23:00 +14°C° 0 mm 3 mps 740 mmHg 93%

    26 May, Saturday

    Time Temperature Precipitation Wind Pressure Humidity
    00:00 +14°C° 0 mm 3 mps 740 mmHg 94%
    01:00 +13°C° 0 mm 3 mps 740 mmHg 96%
    02:00 +13°C° 0 mm 3 mps 740 mmHg 96%
    03:00 +12°C° 0 mm 3 mps 740 mmHg 97%
    04:00 +12°C° 0 mm 3 mps 740 mmHg 97%
    05:00 +13°C° 0 mm 3 mps 740 mmHg 93%
    06:00 +16°C° 0 mm 3 mps 740 mmHg 88%
    07:00 +17°C° 0 mm 3 mps 741 mmHg 84%
    08:00 +18°C° 0 mm 4 mps 741 mmHg 80%
    09:00 +19°C° 0 mm 4 mps 741 mmHg 77%
    10:00 +20°C° 0 mm 4 mps 741 mmHg 74%
    11:00 +20°C° 0 mm 4 mps 741 mmHg 74%
    12:00 +20°C° 0 mm 4 mps 741 mmHg 74%
    13:00 +20°C° 0 mm 4 mps 741 mmHg 74%
    14:00 +20°C° 0 mm 4 mps 741 mmHg 75%
    15:00 +20°C° 0 mm 4 mps 741 mmHg 75%
    16:00 +20°C° 0 mm 4 mps 741 mmHg 76%
    17:00 +19°C° 0 mm 3 mps 741 mmHg 79%
    18:00 +19°C° 0 mm 3 mps 741 mmHg 82%
    19:00 +18°C° 0 mm 2 mps 741 mmHg 85%
    20:00 +18°C° 0 mm 2 mps 741 mmHg 87%
    21:00 +17°C° 0 mm 2 mps 741 mmHg 89%
    22:00 +17°C° 0 mm 2 mps 741 mmHg 91%
    23:00 +16°C° 0 mm 2 mps 741 mmHg 92%

    27 May, Sunday

    Time Temperature Precipitation Wind Pressure Humidity
    00:00 +16°C° 0 mm 2 mps 741 mmHg 93%
    01:00 +16°C° 0 mm 2 mps 741 mmHg 94%
    02:00 +16°C° 0 mm 2 mps 740 mmHg 95%
    03:00 +15°C° 0 mm 2 mps 740 mmHg 95%
    04:00 +15°C° 0 mm 2 mps 740 mmHg 95%
    05:00 +16°C° 0 mm 2 mps 740 mmHg 92%
    06:00 +17°C° 0 mm 2 mps 741 mmHg 88%
    07:00 +18°C° 0 mm 2 mps 741 mmHg 84%
    08:00 +19°C° 0.3 mm 2 mps 741 mmHg 81%
    09:00 +20°C° 0.3 mm 2 mps 741 mmHg 78%
    10:00 +21°C° 0.3 mm 2 mps 741 mmHg 74%
    11:00 +23°C° 1.3 mm 2 mps 740 mmHg 72%
    12:00 +24°C° 1.3 mm 2 mps 740 mmHg 71%
    13:00 +24°C° 1.3 mm 2 mps 740 mmHg 69%
    14:00 +24°C° 1.3 mm 2 mps 740 mmHg 69%
    15:00 +24°C° 1.3 mm 2 mps 739 mmHg 70%
    16:00 +24°C° 1.3 mm 2 mps 739 mmHg 70%
    17:00 +23°C° 0.6 mm 2 mps 739 mmHg 75%
    18:00 +21°C° 0.6 mm 2 mps 739 mmHg 80%
    19:00 +19°C° 0.6 mm 2 mps 739 mmHg 85%
    20:00 +19°C° 0.1 mm 2 mps 739 mmHg 88%
    21:00 +18°C° 0.1 mm 2 mps 739 mmHg 90%
    22:00 +17°C° 0.1 mm 2 mps 739 mmHg 92%
    23:00 +17°C° 0.4 mm 2 mps 739 mmHg 93%
    Show more